sat.trackr.live / text

‹ back to catalog

ONEWEB-0417

NORAD 50492 · 2021-132Z

PAYLOAD ACTIVE UNKNOWN

§ Identity

Operator
Country
UK
Launch date
2021-12-27
Launch site
TYMSC
Launch vehicle
Mass (kg)
RCS (m²)

Purposes: comms

External: N2YO · Heavens-Above · Gunter

§ Orbital elements

Epoch: 2026-09-19T22:46:15.837024Z

Period
109.20 min
Inclination
87.9161°
Eccentricity
0.0001989
Mean motion
13.18687468 rev/d
Perigee alt
1,188.2 km
Apogee alt
1,191.2 km
Semi-major
7,567.9 km
B*
1.1218e-4
RAAN
316.6266°
Arg perigee
103.7658°
Mean anomaly
256.3696°
Rev number
23,409

§ Raw data

ONEWEB-04171 50492U 21132Z   26262.94879441  .00000057  00000+0  11218-3 0  99902 50492  87.9161 316.6266 0001989 103.7658 256.3696 13.18687468234098

JSON: /api/v1/satellites/50492 · /tle

For live sub-satellite position, see the globe view (requires WebGL).

§ Visibility from observer

Set your observer location to see the next 7 days of passes ≥ 10°. The values pass through the URL so the page stays shareable.

No JS? Fill the form by hand. The geolocation button needs JavaScript.